Location: Asheville, NC
(35.6000°N, 82.5500°W)
Time: 01:08:08
(UTC-04:00)

Vanguard 1 Rocket - Pass Details

Date: 12 December 2017
Orbit: 653 x 4224 km, 34.3° (Epoch: 23 June)

Event Time Altitude Azimuth Distance (km) Brightness Sun altitude
Rises 03:10:55 0° 277° (W) 8,323 - -51.9°
Reaches altitude 10° 03:22:33 10° 256° (WSW) 7,421 - -49.5°
Maximum altitude 03:31:20 13° 235° (SW) 6,980 - -47.7°
Drops below altitude 10° 03:39:38 10° 214° (SW) 6,837 - -46.0°
Exits shadow 03:41:33 - 209° (SSW) 6,849 11.6 -45.7°
Sets 03:49:32 0° 189° (S) 7,106 11.9 -44.0°
